Regional Weather Roundup
Issued by NWS

Home | Current Version | Previous Version | Text Only | Print | Product List | Glossary Off
Versions: 1 2 3 4 5 6 7 8 9 10 11 12 13 14 15 16 17 18 19 20 21 22 23 24 25 26 27 28 29 30 31 32 33 34 35 36 37 38 39 40 41 42 43 44 45 46 47 48 49 50

000
ASUS43 KOAX 190010
RWRNE

WEATHER ROUNDUP FOR NEBRASKA
NATIONAL WEATHER SERVICE OMAHA NE
600 PM CST THU DEC 18 2014

NOTES: SATELLITE DATA IS BEING USED TO AUGMENT CLOUD COVER ABOVE
       12000 FEET.
       "FAIR" INDICATES FEW OR NO CLOUDS BELOW 12,000 FEET WITH NO
       SIGNIFICANT WEATHER AND/OR OBSTRUCTIONS TO VISIBILITY.

  * THESE STATIONS DO NOT REPORT WEATHER SUCH AS RAIN...SNOW OR FOG.

NEZ001>004-019>022-054>056-190100-
NEBRASKA PANHANDLE

CITY           SKY/WX    TMP DP  RH WIND       PRES   REMARKS
SCOTTSBLUFF    MOCLDY    15  12  88 N6        30.04R WCI   6
6HR MIN TEMP:  13; 6HR MAX TEMP:  22;

ALLIANCE       MOCLDY    22  20  92 W7        30.02R WCI  13
6HR MIN TEMP:  22; 6HR MAX TEMP:  31;

CHADRON        PTCLDY    26  19  74 SW8       30.03R WCI  18
6HR MIN TEMP:  22; 6HR MAX TEMP:  37;

KIMBALL        MOCLDY    34  22  62 W8        30.02R WCI  27
SIDNEY         MOCLDY    28  21  75 W10       30.04S WCI  19
6HR MIN TEMP:  28; 6HR MAX TEMP:  40;

$$

NEZ057>060-069>072-079>082-190100-
SOUTHWEST NEBRASKA

CITY           SKY/WX    TMP DP  RH WIND       PRES   REMARKS
NORTH PLATTE   CLOUDY    27  24  89 W6        30.09R WCI  20
6HR MIN TEMP:  26; 6HR MAX TEMP:  29;

IMPERIAL       MOCLDY    26  23  88 SW3       30.07S FOG
6HR MIN TEMP:  25; 6HR MAX TEMP:  29;

LEXINGTON      CLOUDY    30  27  89 SW5       30.11S WCI  25
MCCOOK         CLOUDY    30  26  85 W3        30.11R
6HR MIN TEMP:  27; 6HR MAX TEMP:  30;

OGALLALA       PTCLDY    22  21  93 CALM      30.06F
$$

NEZ005>010-023>029-035>040-094-190100-
NORTH CENTRAL NEBRASKA

CITY           SKY/WX    TMP DP  RH WIND       PRES   REMARKS
VALENTINE      CLEAR     20  18  92 S6        30.05F FOG     WCI  12
6HR MIN TEMP:  20; 6HR MAX TEMP:  27;

AINSWORTH      CLOUDY    26  25  96 SW5       30.08R FOG     WCI  20
BROKEN BOW     CLOUDY    30  26  85 SW7       30.09S WCI  23
6HR MIN TEMP:  27; 6HR MAX TEMP:  30;

O`NEILL        CLOUDY    29  27  92 CALM      30.12S
THEDFORD       CLEAR     26  24  95 S8        30.05F WCI  17
$$

NEZ041-046>049-061>064-073>077-083>087-190100-
SOUTH CENTRAL NEBRASKA

CITY           SKY/WX    TMP DP  RH WIND       PRES   REMARKS
GRAND ISLAND   CLOUDY    29  25  85 SW3       30.16R
6HR MIN TEMP:  27; 6HR MAX TEMP:  30;

AURORA         CLOUDY    30  27  87 CALM      30.16S
HASTINGS       CLOUDY    30  25  81 W3        30.14S
6HR MIN TEMP:  27; 6HR MAX TEMP:  30;

HEBRON         CLOUDY    30  25  82 CALM      30.18F
HOLDREGE       CLOUDY    28  25  88 W7        30.13S WCI  21
KEARNEY *      CLOUDY    28  23  80 S7        30.14S WCI  21
YORK           CLOUDY    28  27  93 S3        30.17S
$$

NEZ011>018-030>034-042>045-190100-
NORTHEAST NEBRASKA

CITY           SKY/WX    TMP DP  RH WIND       PRES   REMARKS
NORFOLK        CLOUDY    29  24  82 S3        30.16S
6HR MIN TEMP:  29; 6HR MAX TEMP:  29;

ALBION         CLOUDY    28  24  84 S3        30.15S
BLAIR          CLOUDY    31  27  83 CALM      30.20S
COLUMBUS *     CLOUDY    28  21  74 S5        30.19S WCI  23
FREMONT        CLOUDY    32  28  83 SE3       30.21R
TEKAMAH        CLOUDY    31  26  82 SE6       30.22S WCI  25
6HR MIN TEMP:  29; 6HR MAX TEMP:  31;

WAYNE          CLOUDY    30  26  83 S5        30.19R WCI  25
$$

NEZ050>053-065>068-078-088>093-190100-
SOUTHEAST NEBRASKA

CITY           SKY/WX    TMP DP  RH WIND       PRES   REMARKS
LINCOLN        CLOUDY    32  27  81 CALM      30.21S
6HR MIN TEMP:  30; 6HR MAX TEMP:  32;

OMAHA EPPLEY   CLOUDY    31  26  82 SE6       30.23S WCI  25
6HR MIN TEMP:  29; 6HR MAX TEMP:  31; 6HR PCP: TRACE;

BEATRICE       CLOUDY    31  28  86 CALM      30.19S
FALLS CITY     CLOUDY    30  27  88 E3        30.22R
6HR MIN TEMP:  30; 6HR MAX TEMP:  31;

NEBRASKA CITY  CLOUDY    30  29  94 CALM      30.21S
PLATTSMOUTH    CLOUDY    30  26  84 SE3       30.21S
$$

NEZ044-045-051>053-067-190100-
OMAHA AREA

CITY           SKY/WX    TMP DP  RH WIND       PRES   REMARKS
OMAHA EPPLEY   CLOUDY    31  26  82 SE6       30.23S WCI  25
6HR MIN TEMP:  29; 6HR MAX TEMP:  31; 6HR PCP: TRACE;

BLAIR          CLOUDY    31  27  83 CALM      30.20S
FREMONT        CLOUDY    32  28  83 SE3       30.21R
MILLARD        CLOUDY    31  27  82 SE5       30.21F WCI  27
OFFUTT AFB     CLOUDY    31  27  85 SE2       30.21F
PLATTSMOUTH    CLOUDY    30  26  84 SE3       30.21S
WAHOO          CLOUDY    31  27  84 SE6       30.20S WCI  25
$$



USA.gov is the U.S. government's official web portal to all federal, state and local government web resources and services.